Location: Dackenheim
(49.5215°N, 8.1854°E)
Time: 23:15:20
(UTC+00:00)

JY1SAT - Visible Passes

Search period start: 14 March 2026 00:00
Search period end: 24 March 2026 00:00
Orbit: 471 x 478 km, 97.4° (Epoch: 14 March)

Date Brightness Start Highest point End Pass type
(mag) Time Alt. Az. Time Alt. Az. Time Alt. Az.
14 Mar ? 19:07:48 11° NE 19:07:48 11° NE 19:08:07 10° NE visible
14 Mar ? 20:41:57 18° NNW 20:41:57 18° NNW 20:42:56 10° NNW visible
15 Mar ? 20:14:00 21° N 20:14:00 21° N 20:15:21 10° N visible
16 Mar ? 19:46:01 19° NNE 19:46:01 19° NNE 19:47:27 10° N visible
16 Mar ? 21:20:10 12° NW 21:20:10 12° NW 21:20:33 10° NW visible
17 Mar ? 19:18:00 14° NE 19:18:00 14° NE 19:19:04 10° NNE visible
17 Mar ? 20:52:08 19° NNW 20:52:08 19° NNW 20:53:18 10° NNW visible
18 Mar ? 20:24:04 25° N 20:24:04 25° N 20:25:40 10° N visible
19 Mar ? 19:55:57 24° NNE 19:55:57 24° NNE 19:57:44 10° N visible
19 Mar ? 21:30:05 11° NW 21:30:05 11° NW 21:30:24 10° NW visible
20 Mar ? 19:27:48 17° NE 19:27:48 17° NE 19:29:24 10° NNE visible
20 Mar ? 21:01:55 19° NW 21:01:55 19° NW 21:03:12 10° NNW visible
21 Mar ? 18:59:36 10° NE 18:59:36 10° NE 18:59:49 10° NE visible
21 Mar ? 20:33:42 28° NNW 20:33:42 28° NNW 20:35:32 10° NNW visible
22 Mar ? 20:05:28 30° NNE 20:05:28 30° NNE 20:07:34 10° N visible
22 Mar ? 21:39:35 11° NW 21:39:35 11° NW 21:39:44 10° NW visible
23 Mar ? 19:37:10 21° NE 19:37:10 21° NE 19:39:14 10° NNE visible
23 Mar ? 21:11:17 19° NW 21:11:17 19° NW 21:12:39 10° NNW visible
